Regional Weather Roundup
Issued by NWS

Home | Current Version | Previous Version | Graphics & Text | Print | Product List | Glossary On
Versions: 1 2 3 4 5 6 7 8 9 10 11 12 13 14 15 16 17 18 19 20 21 22 23 24 25 26 27 28 29 30 31 32 33 34 35 36 37 38 39 40 41 42 43 44 45 46 47 48 49 50
000
ASUS43 KDMX 281206
RWRIA

WEATHER ROUNDUP FOR IOWA
NATIONAL WEATHER SERVICE DES MOINES IA
700 AM CDT TUE MAR 28 2017

NOTE: "FAIR" INDICATES FEW OR NO CLOUDS BELOW 12,000 FEET WITH NO
SIGNIFICANT WEATHER AND/OR OBSTRUCTIONS TO VISIBILITY.

* - THESE STATIONS ARE NOT NWS STATIONS...THUS NOT UNDER NWS
QUALITY CONTROL.  THEY ALSO DO NOT REPORT WEATHER SUCH
AS PRECIPITATION OR FOG.

IAZ001>003-012>014-020>022-031>034-043>046-281300-
   NORTHWEST IOWA

CITY           SKY/WX    TMP DP  RH WIND       PRES   REMARKS
CARROLL *      CLOUDY    37  37 100 CALM      30.07S FOG
CHEROKEE *     CLEAR     30  30 100 CALM      30.08S
DENISON *      MOCLDY    36  36 100 CALM      30.08S FOG
LE MARS *      PTCLDY    32  32 100 N3        30.09R
ORANGE CITY *  CLEAR     36  36 100 NE6       30.07R FOG     WCI  31
SHELDON *      CLEAR     30  30 100 NE5       30.06S FOG     WCI  25
SIOUX CITY     FOG       28  28 100 CALM      30.08R VSB 1/4
6HR MIN TEMP:  27; 6HR MAX TEMP:  38;

SPENCER        CLEAR     29  27  92 W3        30.08S
6HR MIN TEMP:  28; 6HR MAX TEMP:  33;

STORM LAKE *   FOG       36  36 100 NE3       30.07S VSB<1/4
$$

IAZ055>058-069>071-079>083-090>094-281300-
   SOUTHWEST IOWA

CITY           SKY/WX    TMP DP  RH WIND       PRES   REMARKS
ATLANTIC *     CLOUDY    45  41  87 N6        30.06R
AUDUBON *      CLOUDY    45  41  87 CALM      30.07R
CLARINDA *     CLOUDY    45  43  93 NE7       30.08R
COUNCIL BLFS * CLOUDY    43  43 100 NE6       30.06R
CRESTON *      CLOUDY    45  41  87 N6        30.07S
HARLAN  *      CLOUDY    45  45 100 N6        30.09S
LAMONI         CLOUDY    45  42  89 N8        30.05R
6HR MIN TEMP:  45; 6HR MAX TEMP:  47;

RED OAK *      CLOUDY    45  39  81 NE5       30.06S
SHENANDOAH *   CLOUDY    46  41  81 E7        30.07R
$$

IAZ047>049-059>061-072>074-084-281300-
   CENTRAL IOWA

CITY           SKY/WX    TMP DP  RH WIND       PRES   REMARKS
AMES           CLOUDY    45  43  93 N5        30.07R
6HR MIN TEMP:  45; 6HR MAX TEMP:  47;

ANKENY *       CLOUDY    45  43  93 CALM      30.08R
BOONE *        CLOUDY    43  43 100 N7        30.06S
CHARITON *     CLOUDY    45  41  87 CALM      30.06S
DES MOINES     CLOUDY    48  41  76 NE3       30.07R
6HR MIN TEMP:  46; 6HR MAX TEMP:  48;

GRINNELL*      CLOUDY    45  42  89 CALM      30.08R
MARSHALLTOWN   CLOUDY    44  43  96 NE7       30.06R
6HR MIN TEMP:  44; 6HR MAX TEMP:  45;

NEWTON *       CLOUDY    45  43  93 CALM      30.06R
PELLA *        CLOUDY    46  42  88 N3        30.08R
PERRY *        CLOUDY    45  43  92 CALM      30.07S
$$

IAZ004>006-015-016-023>025-035-036-281300-
   NORTH CENTRAL IOWA

CITY           SKY/WX    TMP DP  RH WIND       PRES   REMARKS
ALGONA *       FOG       32  32 100 CALM      30.08R VSB<1/4
CLARION *      MOCLDY    36  36 100 E5        30.08R FOG     WCI  32
ESTHERVILLE    CLEAR     32  32 100 CALM      30.08R FOG
6HR MIN TEMP:  30; 6HR MAX TEMP:  35;

FORT DODGE *   CLOUDY    30  28  93 CALM      30.08S VSB 1/4
MASON CITY     FOG       30  30 100 N5        30.09R VSB 1/2 WCI  25
6HR MIN TEMP:  30; 6HR MAX TEMP:  33;

FOREST CITY *    N/A     28  27  93 CALM      30.07S FOG
WEBSTER CITY * CLOUDY    39  39 100 N5        30.06R
IOWA FALLS *   CLOUDY    44  41  89 NE6       30.08R
$$

IAZ007>011-017>019-026>030-037>042-050>054-066-281300-
   NORTHEAST IOWA

CITY           SKY/WX    TMP DP  RH WIND       PRES   REMARKS
CEDAR RAPIDS   CLOUDY    45  45 100 N6        30.06R
6HR MIN TEMP:  45; 6HR MAX TEMP:  46;

CHARLES CITY * CLOUDY    43  43 100 NE8       30.08S
CLINTON *      LGT RAIN  46  45  96 NE6       30.06R FOG
DECORAH *      CLOUDY    41  39  93 NE5       30.07S
DUBUQUE        FOG       44  44 100 NE7       30.06R VSB 1/4
6HR MIN TEMP:  44; 6HR MAX TEMP:  46; 6HR PCP:  0.02;

MONTICELLO *   CLOUDY    45  45 100 NW5       30.07R
OELWEIN *      CLOUDY    43  43 100 N5        30.08R
WATERLOO       CLOUDY    44  41  89 NE5       30.07R
6HR MIN TEMP:  44; 6HR MAX TEMP:  45;

$$

IAZ064-065-067-068-078-281300-
   EAST CENTRAL IOWA

CITY           SKY/WX    TMP DP  RH WIND       PRES   REMARKS
DAVENPORT      CLOUDY    46  44  93 NE7       30.06R
6HR MIN TEMP:  46; 6HR MAX TEMP:  48;

IOWA CITY      CLOUDY    48  44  86 N6        30.08R
6HR MIN TEMP:  48; 6HR MAX TEMP:  50;

MUSCATINE *    CLOUDY    48  45  87 N3        30.07R
QUAD CITIES    CLOUDY    48  44  86 NE5       30.05R
6HR MIN TEMP:  48; 6HR MAX TEMP:  50;

$$

IAZ062-063-075>077-085>089-095>099-281300-
   SOUTHEAST IOWA

CITY           SKY/WX    TMP DP  RH WIND       PRES   REMARKS
BURLINGTON     CLOUDY    48  47  96 N5        30.05R
6HR MIN TEMP:  48; 6HR MAX TEMP:  50;

FAIRFIELD *    CLOUDY    46  46 100 N6        30.06R
FORT MADISON * CLOUDY    48  46  93 CALM      30.06S FOG
KEOKUK *       CLOUDY    48  46  93 CALM      30.06R FOG
OSKALOOSA *    CLOUDY    45  42  91 N3        30.07R
CENTERVILLE *  CLOUDY    45  45 100 CALM      30.07R
OTTUMWA        CLOUDY    46  44  93 NW3       30.06R
6HR MIN TEMP:  46; 6HR MAX TEMP:  48;

WASHINGTON *   CLOUDY    46  46 100 N5        30.08R
$$

ABBREVIATIONS USED IN REMARKS
   TC - TEMPERATURES IN CELSIUS
  WCI - WIND CHILL INDEX
   HX - HEAT INDEX
  VSB - VISIBILITY
$$




USA.gov is the U.S. government's official web portal to all federal, state and local government web resources and services.